DW5542 Weather Reports


time (UTC)temp
C
wind
direction
speed
KPH
gust
KPH
rain 1hr
cm
rain 24hr
cm
rain mn
cm
humidity
%
barometer
mb
20260502201621 17 152 0.0 0.0 0.00 0.00 0.00 87 1015.7
20260502200101 17 171 0.0 0.0 0.00 0.00 0.00 87 1015.8
20260502194603 18 158 0.0 3.2 0.00 0.00 0.00 87 1015.5
20260502193118 18 117 0.0 0.0 0.00 0.00 0.00 87 1015.5
20260502191559 18 105 0.0 0.0 0.00 0.00 0.00 87 1015.2
20260502190058 18 120 0.0 6.4 0.00 0.00 0.00 86 1015.2
20260502184555 18 135 0.0 1.6 0.00 0.00 0.00 86 1015.1
20260502183057 18 117 0.0 4.8 0.00 0.00 0.00 86 1015.6
20260502181552 18 115 0.0 8.0 0.00 0.00 0.00 86 1015.7
20260502163048 19 153 0.0 9.7 0.00 0.00 0.00 83 1016.0
20260502161552 19 129 0.0 12.9 0.00 0.00 0.00 83 1016.1
20260502151545 20 167 1.6 11.3 0.00 0.00 0.00 81 1016.3
20260502123023 20 180 0.0 14.5 0.00 0.00 0.00 82 1018.0
20260502121518 20 153 0.0 4.8 0.00 0.00 0.00 83 1018.3
20260502114525 20 150 0.0 12.9 0.00 0.08 0.00 81 1018.3
20260502113019 20 150 0.0 11.3 0.00 0.08 0.00 80 1018.4
20260502111514 20 143 0.0 11.3 0.00 0.08 0.00 82 1018.5
20260502110015 20 176 0.0 12.9 0.00 0.08 0.00 81 1018.6
20260502104518 20 192 0.0 9.7 0.00 0.33 0.00 80 1018.8
20260502103010 20 123 0.0 3.2 0.00 0.33 0.00 79 1018.8
20260502101510 20 86 0.0 8.0 0.00 0.33 0.00 79 1018.8
20260502091503 20 107 0.0 0.0 0.00 0.33 0.00 80 1019.0
20260502080105 19 135 0.0 4.8 0.00 0.33 0.00 81 1019.0
20260502070058 18 100 0.0 0.0 0.00 0.33 0.00 86 1019.0
20260502064612 18 115 0.0 0.0 0.00 0.33 0.00 87 1019.2
20260502063054 17 115 0.0 0.0 0.00 0.33 0.00 88 1019.5
20260502061544 17 114 0.0 0.0 0.00 0.33 0.00 89 1019.3
20260502060046 17 114 0.0 0.0 0.00 0.33 0.00 89 1019.2
20260502054541 17 115 0.0 0.0 0.00 0.33 0.00 90 1019.0
20260502053036 -17 0.0 0.0 0.00 0.33 0.00 1018.9
20260502051535 -17 0.0 0.0 0.00 0.33 0.00 1018.8
20260502050034 -17 0.0 0.0 0.00 0.33 0.00 1018.8
20260502044523 -17 0.0 0.0 0.00 0.33 0.00 1018.9
20260502043019 -17 0.0 0.0 0.00 0.33 0.00 1018.8
20260502041515 -17 0.0 0.0 0.00 0.33 0.00 1018.9
20260502040018 17 114 0.0 0.0 0.00 0.33 0.00 90 1019.1
20260502034511 17 114 0.0 0.0 0.00 0.33 0.00 91 1019.2
20260502033019 17 114 0.0 0.0 0.00 0.33 0.00 91 1019.3
20260502031510 17 114 0.0 0.0 0.00 0.33 0.00 91 1019.4
20260502030010 17 110 0.0 0.0 0.00 0.33 0.00 91 1019.1
20260502024512 17 113 0.0 0.0 0.00 0.33 0.00 91 1019.1
20260502023007 17 107 0.0 0.0 0.00 0.33 0.00 91 1019.2
20260502021505 17 117 0.0 0.0 0.00 0.33 0.00 91 1019.2
20260502020003 17 110 0.0 0.0 0.00 0.33 0.00 92 1019.4
20260502014501 17 110 0.0 0.0 0.00 0.33 0.00 91 1019.5
20260502013102 17 96 0.0 0.0 0.00 0.33 0.00 91 1019.6
20260502011603 17 103 0.0 0.0 0.00 0.33 0.00 91 1019.7
20260502010109 17 106 0.0 0.0 0.00 0.33 0.00 91 1019.9
20260502004557 17 118 0.0 0.0 0.00 0.33 0.00 91 1019.9
20260502003054 17 110 0.0 0.0 0.00 0.33 0.00 91 1019.9
20260502001551 17 116 0.0 0.0 0.00 0.33 0.00 91 1020.3
20260502000051 17 116 0.0 0.0 0.00 0.33 0.00 91 1020.5
20260501234548 17 115 0.0 0.0 0.00 0.33 0.00 91 1020.6
20260501233048 17 116 0.0 0.0 0.00 0.33 0.00 91 1020.7
20260501231547 17 115 0.0 0.0 0.00 0.33 0.00 91 1020.8
20260501230047 17 117 0.0 0.0 0.00 0.33 0.00 91 1020.6
20260501224546 17 111 0.0 0.0 0.00 0.33 0.00 91 1020.7
20260501223045 17 119 0.0 0.0 0.00 0.33 0.00 91 1020.6
20260501221543 17 101 0.0 1.6 0.00 0.33 0.00 91 1020.7
20260501220041 17 100 0.0 0.0 0.00 0.33 0.00 90 1021.0
20260501214540 17 100 0.0 0.0 0.00 0.33 0.33 90 1021.1
20260501213042 17 142 0.0 0.0 0.00 0.33 0.33 90 1020.9
20260501211543 17 141 0.0 0.0 0.00 0.33 0.33 90 1021.0
20260501210039 17 120 0.0 0.0 0.00 0.33 0.33 90 1021.1
20260501204547 17 120 0.0 0.0 0.00 0.33 0.33 89 1021.2
20260501203034 17 162 0.0 0.0 0.00 0.33 0.33 89 1020.9